Caldwell, ID

6:14 AM MDT on August 17, 2017 (GMT -0600)
Caldwell Industrial

Weather History for KEUL - March, 2014

Change the Weather History Date:

Saturday, March 8, 2014

  Actual Average (KBOI) Record (KBOI)
Temperature  
Mean Temperature 45 °F -  
Max Temperature 60 °F 52 °F 68 °F (2005)
Min Temperature 30 °F 31 °F 21 °F (1964)
Degree Days  
Heating Degree Days 20    
Moisture  
Dew Point 28 °F    
Average Humidity 52    
Maximum Humidity 75    
Minimum Humidity 31    
Precipitation  
Precipitation 0.00 in - - ()
Sea Level Pressure  
Sea Level Pressure 30.25 in    
Wind  
Wind Speed 8 mph (SE)    
Max Wind Speed 21 mph    
Max Gust Speed 25 mph    
Visibility 10 miles    
Events      
Averages and records for this station are not official NWS values.
T = Trace of Precipitation, MM = Missing Value Source: NWS Daily Summary

Daily Weather History Graph

Daily Weather History Graph

Search for Another Location

Airport or City:

Trip Planner

Search our weather history database for the weather conditions in past years. The results will help you decide how hot, cold, wet, or windy it might be!

Date:

Astronomy

Mar. 08, 2014 Rise Set
Actual Time 7:10 AM MST 6:44 PM MST
Civil Twilight 6:42 AM MST 7:12 PM MST
Nautical Twilight 6:09 AM MST 7:46 PM MST
Astronomical Twilight 5:35 AM MST 8:19 PM MST
Moon 11:44 AM MST (3/8) 1:57 AM MST (3/8)
Length of Visible Light 12h 30m
Length of Day
11h 33m
First Quarter, 52% of the Moon is Illuminated
Mar 8
First Quarter
Mar 16
Full
Mar 23
Last Quarter
Mar 30
New
Apr 7
First Quarter

Hourly Weather History & Observations

Time (MST) Temp. Windchill Dew Point Humidity Pressure Visibility Wind Dir Wind Speed Gust Speed Precip Events Conditions
12:15 AM 37.4 °F 34.9 °F 26.6 °F 65% 30.31 in 10.0 mi WNW 3.5 mph - N/A   Clear
12:35 AM 37.4 °F 34.9 °F 26.6 °F 65% 30.31 in 10.0 mi ENE 3.5 mph - N/A   Clear
12:55 AM 33.8 °F - 26.6 °F 75% 30.31 in 10.0 mi Calm Calm - N/A   Clear
1:15 AM 35.6 °F - 26.6 °F 70% 30.30 in 10.0 mi Calm Calm - N/A   Clear
1:35 AM 35.6 °F 31.7 °F 26.6 °F 70% 30.30 in 10.0 mi ESE 4.6 mph - N/A   Clear
1:55 AM 33.8 °F - 24.8 °F 70% 30.30 in 10.0 mi Calm Calm - N/A   Clear
2:15 AM 33.8 °F 30.8 °F 26.6 °F 75% 30.30 in 10.0 mi SE 3.5 mph - N/A   Clear
2:35 AM 33.8 °F 29.6 °F 24.8 °F 70% 30.29 in 10.0 mi SE 4.6 mph - N/A   Clear
2:55 AM 33.8 °F 29.6 °F 24.8 °F 70% 30.29 in 10.0 mi SE 4.6 mph - N/A   Clear
3:15 AM 33.8 °F 29.6 °F 24.8 °F 70% 30.29 in 10.0 mi SE 4.6 mph - N/A   Clear
3:35 AM 32.0 °F - 23.0 °F 69% 30.29 in 10.0 mi Calm Calm - N/A   Clear
3:55 AM 30.2 °F 24.3 °F 23.0 °F 75% 30.28 in 10.0 mi East 5.8 mph - N/A   Clear
4:15 AM 30.2 °F 25.4 °F 23.0 °F 75% 30.28 in 10.0 mi SE 4.6 mph - N/A   Clear
4:35 AM 30.2 °F 26.7 °F 23.0 °F 75% 30.28 in 10.0 mi ESE 3.5 mph - N/A   Clear
4:55 AM 30.2 °F - 21.2 °F 69% 30.29 in 10.0 mi Calm Calm - N/A   Clear
5:15 AM 30.2 °F 25.4 °F 21.2 °F 69% 30.31 in 10.0 mi NNE 4.6 mph - N/A   Clear
5:35 AM 30.2 °F 25.4 °F 23.0 °F 75% 30.31 in 10.0 mi NE 4.6 mph - N/A   Clear
5:55 AM 32.0 °F 25.6 °F 23.0 °F 69% 30.33 in 10.0 mi ENE 6.9 mph - N/A   Clear
6:15 AM 30.2 °F 26.7 °F 21.2 °F 69% 30.33 in 10.0 mi East 3.5 mph - N/A   Clear
6:35 AM 30.2 °F - 21.2 °F 69% 30.33 in 10.0 mi Calm Calm - N/A   Clear
6:55 AM 30.2 °F 23.4 °F 21.2 °F 69% 30.33 in 10.0 mi ESE 6.9 mph - N/A   Clear
7:15 AM 30.2 °F 21.9 °F 21.2 °F 69% 30.33 in 10.0 mi SE 9.2 mph - N/A   Clear
7:35 AM 33.8 °F 24.8 °F 24.8 °F 70% 30.34 in 10.0 mi SE 12.7 mph - N/A   Clear
7:55 AM 35.6 °F 25.9 °F 24.8 °F 65% 30.34 in 10.0 mi SE 16.1 mph - N/A   Clear
8:15 AM 35.6 °F 28.0 °F 24.8 °F 65% 30.34 in 10.0 mi SSE 10.4 mph - N/A   Clear
8:35 AM 37.4 °F 30.8 °F 26.6 °F 65% 30.34 in 10.0 mi SSE 9.2 mph - N/A   Clear
8:55 AM 39.2 °F 32.0 °F 28.4 °F 65% 30.34 in 10.0 mi South 11.5 mph - N/A   Clear
9:15 AM 41.0 °F 35.8 °F 28.4 °F 61% 30.34 in 10.0 mi South 8.1 mph - N/A   Clear
9:35 AM 44.6 °F 38.4 °F 30.2 °F 57% 30.34 in 10.0 mi SSE 12.7 mph - N/A   Clear
9:55 AM 44.6 °F 38.8 °F 30.2 °F 57% 30.35 in 10.0 mi South 11.5 mph - N/A   Clear
10:15 AM 46.4 °F 41.1 °F 30.2 °F 53% 30.34 in 10.0 mi South 11.5 mph - N/A   Clear
10:35 AM 48.2 °F - 32.0 °F 54% 30.34 in 10.0 mi SSE 13.8 mph 19.6 mph N/A   Clear
10:55 AM 48.2 °F - 32.0 °F 54% 30.33 in 10.0 mi SSE 12.7 mph - N/A   Clear
11:15 AM 51.8 °F - 33.8 °F 50% 30.32 in 10.0 mi SE 19.6 mph 24.2 mph N/A   Clear
11:35 AM 53.6 °F - 33.8 °F 47% 30.31 in 10.0 mi SSE 20.7 mph 25.3 mph N/A   Clear
11:55 AM 55.4 °F - 33.8 °F 44% 30.30 in 10.0 mi SE 17.3 mph - N/A   Clear
12:15 PM 55.4 °F - 32.0 °F 41% 30.29 in 10.0 mi SE 17.3 mph 23.0 mph N/A   Clear
12:35 PM 55.4 °F - 33.8 °F 44% 30.29 in 10.0 mi SE 17.3 mph - N/A   Clear
12:55 PM 57.2 °F - 32.0 °F 38% 30.27 in 10.0 mi SSE 18.4 mph 23.0 mph N/A   Clear
1:15 PM 57.2 °F - 32.0 °F 38% 30.27 in 10.0 mi SSE 15.0 mph - N/A   Clear
1:35 PM 57.2 °F - 30.2 °F 36% 30.26 in 10.0 mi SSE 12.7 mph - N/A   Clear
1:55 PM 57.2 °F - 30.2 °F 36% 30.26 in 10.0 mi SSE 15.0 mph 19.6 mph N/A   Clear
2:15 PM 57.2 °F - 30.2 °F 36% 30.25 in 10.0 mi SSE 17.3 mph 21.9 mph N/A   Clear
2:35 PM 60.8 °F - 32.0 °F 34% 30.22 in 10.0 mi SE 20.7 mph 24.2 mph N/A   Clear
2:55 PM 60.8 °F - 30.2 °F 31% 30.22 in 10.0 mi SE 16.1 mph 25.3 mph N/A   Clear
3:15 PM 59.0 °F - 32.0 °F 36% 30.21 in 10.0 mi SE 18.4 mph 25.3 mph N/A   Clear
3:35 PM 60.8 °F - 30.2 °F 31% 30.20 in 10.0 mi SE 17.3 mph 25.3 mph N/A   Clear
3:55 PM 60.8 °F - 30.2 °F 31% 30.20 in 10.0 mi SE 17.3 mph 21.9 mph N/A   Clear
4:15 PM 59.0 °F - 30.2 °F 34% 30.20 in 10.0 mi SE 17.3 mph 24.2 mph N/A   Clear
4:35 PM 57.2 °F - 30.2 °F 36% 30.19 in 10.0 mi SE 17.3 mph 24.2 mph N/A   Clear
4:55 PM 57.2 °F - 30.2 °F 36% 30.18 in 10.0 mi SE 17.3 mph - N/A   Clear
5:15 PM 57.2 °F - 30.2 °F 36% 30.17 in 10.0 mi SE 15.0 mph - N/A   Clear
5:35 PM 57.2 °F - 30.2 °F 36% 30.16 in 10.0 mi SE 15.0 mph - N/A   Clear
5:55 PM 57.2 °F - 28.4 °F 33% 30.16 in 10.0 mi SSE 16.1 mph - N/A   Clear
6:15 PM 57.2 °F - 28.4 °F 33% 30.16 in 10.0 mi SSE 16.1 mph - N/A   Clear
6:35 PM 55.4 °F - 30.2 °F 38% 30.16 in 10.0 mi SSE 16.1 mph 21.9 mph N/A   Clear
6:55 PM 55.4 °F - 28.4 °F 36% 30.15 in 10.0 mi SSE 17.3 mph 21.9 mph N/A   Clear
7:15 PM 55.4 °F - 28.4 °F 36% 30.16 in 10.0 mi SSE 16.1 mph 23.0 mph N/A   Clear
7:35 PM 55.4 °F - 28.4 °F 36% 30.16 in 10.0 mi SSE 15.0 mph - N/A   Clear
7:55 PM 55.4 °F - 28.4 °F 36% 30.15 in 10.0 mi SSE 13.8 mph - N/A   Clear
8:15 PM 53.6 °F - 28.4 °F 38% 30.14 in 10.0 mi SSE 15.0 mph 19.6 mph N/A   Clear
8:35 PM 53.6 °F - 28.4 °F 38% 30.14 in 10.0 mi SSE 15.0 mph 20.7 mph N/A   Clear
8:55 PM 53.6 °F - 30.2 °F 41% 30.14 in 10.0 mi SSE 15.0 mph - N/A   Clear
9:15 PM 53.6 °F - 30.2 °F 41% 30.14 in 10.0 mi SSE 13.8 mph - N/A   Clear
9:35 PM 51.8 °F - 30.2 °F 44% 30.15 in 10.0 mi SSE 12.7 mph - N/A   Clear
9:55 PM 51.8 °F - 30.2 °F 44% 30.14 in 10.0 mi SSE 15.0 mph - N/A   Clear
10:15 PM 53.6 °F - 30.2 °F 41% 30.14 in 10.0 mi SSE 15.0 mph - N/A   Clear
10:35 PM 53.6 °F - 30.2 °F 41% 30.14 in 10.0 mi SSE 15.0 mph - N/A   Clear
10:55 PM 51.8 °F - 30.2 °F 44% 30.14 in 10.0 mi SSE 13.8 mph - N/A   Clear
11:15 PM 51.8 °F - 30.2 °F 44% 30.14 in 10.0 mi SSE 13.8 mph - N/A   Clear
11:35 PM 51.8 °F - 30.2 °F 44% 30.14 in 10.0 mi SE 11.5 mph - N/A   Clear
11:55 PM 51.8 °F - 30.2 °F 44% 30.14 in 10.0 mi SSE 11.5 mph - N/A   Mostly Cloudy